TimeCDT,TemperatureF,Dew PointF,Humidity,Sea Level PressureIn,VisibilityMPH,Wind Direction,Wind SpeedMPH,Gust SpeedMPH,PrecipitationIn,Events,Conditions,WindDirDegrees,DateUTC
12:53 AM,39.0,28.0,65,30.19,10.0,SSW,9.2,-,N/A,,Clear,210,2012-10-08 05:53:00
1:53 AM,39.0,28.9,67,30.18,10.0,SW,9.2,-,N/A,,Clear,220,2012-10-08 06:53:00
2:53 AM,36.0,28.0,73,30.17,10.0,South,5.8,-,N/A,,Clear,190,2012-10-08 07:53:00
3:53 AM,35.1,28.0,76,30.15,10.0,SSW,6.9,-,N/A,,Clear,200,2012-10-08 08:53:00
4:53 AM,34.0,28.0,79,30.15,10.0,South,5.8,-,N/A,,Clear,180,2012-10-08 09:53:00
5:53 AM,32.0,28.0,85,30.15,10.0,South,8.1,-,N/A,,Clear,180,2012-10-08 10:53:00
6:53 AM,32.0,27.0,82,30.16,10.0,South,5.8,-,N/A,,Clear,190,2012-10-08 11:53:00
7:53 AM,33.1,28.9,85,30.16,10.0,South,9.2,-,N/A,,Partly Cloudy,180,2012-10-08 12:53:00
8:53 AM,39.9,32.0,73,30.15,10.0,South,12.7,-,N/A,,Partly Cloudy,190,2012-10-08 13:53:00
9:53 AM,48.0,32.0,54,30.14,10.0,SSW,16.1,-,N/A,,Clear,200,2012-10-08 14:53:00
10:53 AM,54.0,33.1,45,30.13,10.0,South,15.0,-,N/A,,Clear,180,2012-10-08 15:53:00
11:53 AM,57.9,33.1,39,30.10,10.0,South,13.8,24.2,N/A,,Clear,190,2012-10-08 16:53:00
12:53 PM,63.0,33.1,33,30.07,10.0,SSW,20.7,27.6,N/A,,Clear,210,2012-10-08 17:53:00
1:53 PM,64.9,34.0,32,30.04,10.0,SSW,21.9,26.5,N/A,,Partly Cloudy,200,2012-10-08 18:53:00
2:53 PM,66.9,32.0,27,30.00,10.0,South,18.4,-,N/A,,Partly Cloudy,190,2012-10-08 19:53:00
3:53 PM,68.0,32.0,26,29.97,10.0,South,19.6,26.5,N/A,,Partly Cloudy,180,2012-10-08 20:53:00
4:53 PM,66.9,30.9,26,29.96,10.0,South,20.7,27.6,N/A,,Partly Cloudy,190,2012-10-08 21:53:00
5:53 PM,66.0,32.0,28,29.96,10.0,South,19.6,28.8,N/A,,Partly Cloudy,180,2012-10-08 22:53:00
6:53 PM,62.1,34.0,35,29.96,10.0,South,15.0,-,N/A,,Partly Cloudy,190,2012-10-08 23:53:00
7:53 PM,57.9,35.1,42,29.98,10.0,South,12.7,-,N/A,,Partly Cloudy,180,2012-10-09 00:53:00
8:53 PM,55.0,36.0,49,29.99,10.0,South,12.7,-,N/A,,Partly Cloudy,180,2012-10-09 01:53:00
9:53 PM,54.0,36.0,51,29.98,10.0,South,15.0,-,N/A,,Partly Cloudy,180,2012-10-09 02:53:00
10:53 PM,52.0,36.0,54,29.99,10.0,South,12.7,-,N/A,,Partly Cloudy,180,2012-10-09 03:53:00
11:53 PM,50.0,36.0,59,29.99,10.0,South,10.4,-,N/A,,Partly Cloudy,180,2012-10-09 04:53:00